Hlavní strana
METAR-TAF:

METAR-TAF

Letiště :

Winchester, Tennessee, Spojené státy americké

zeměpisná šířka: 35-10-39N, zeměpisná délka: 086-03-58W, výška: 298 m

Aktuální stav počasí

Zpráva byla vytvořena před 20 minutami, v 23:15 UTC
Bezvětří
Teplota 7°C
Vlhkost vzduchu 70%
Tlak 1016 hPa
Viditelnost: 16.1 km
Oblačno až skoro zataženo ve výšce 3600 ft
Zataženo ve výšce 4200 ft

METAR: KBGF 262315Z AUTO 00000KT 10SM BKN036 OVC042 07/02 A3000 RMK A01

Čas: 17:35 (23:35 UTC)


TAF: chybějící

Stav a předpovědi počasí z více než 4 000 letišť (zprávy METAR a TAF).

Červené a žluté tečky na mapě představují dostupné meteorologické stanice.

Když kurzor umístíte na tečku, zobrazí se název stanice.

Pak kliknutím zobrazíte stav a předpověď počasí.

Chcete-li změnit mapu, kliknutím na zelené tlačítko se znaménkem +mapu přiblížíte, kliknutím na zelené tlačítko se znaménkem – mapu oddálíte a kliknutím na zelené šipky přejdete na sousední mapy.


METAR-TAF: